WXM80 ListenWXM80 Stop

You find our weather info also at:

UK Metoffice

WeatherCloud

Weather Underground

Northeastern Weather Network

AWEKAS

Citizen Weather Observer Program (CWOP)

HAMweather, WeatherForYou, PWS Weather


Weather Underground History page Text

Daily Summary for December 21, 2016 Units:  English    Metric   Both
« Previous Day
Next Day »
Daily Weekly Monthly Yearly Custom
  High: Low: Average:
Temperature: 39.1 °F 29.3 °F 34.3 °F
Dew Point: 26.4 °F 20.0 °F 23.7 °F
Humidity: 76 % 56 % 65 %
Wind Speed: 6.4 mph 0.0 mph 1.7 mph
Wind Gust: 29.0 mph - -
Wind:- - WSW
Pressure: 30.18 in 30.07 in -
Precipitation: 0.00 in    
Historical Graphs
 
 
Tabular Data for December 21, 2016
Time Temperature Dew Point Pressure Wind Wind Speed Wind Gust Humidity Rainfall Rate (Hourly)
00:02 30.3 °F 20.6 °F 30.12 in West 2.9 mph 29.0 mph 67 % 0.00 in
00:07 30.3 °F 20.6 °F 30.12 in SSW 0.9 mph 29.0 mph 67 % 0.00 in
00:12 30.3 °F 20.6 °F 30.12 in SSW 1.6 mph 29.0 mph 67 % 0.00 in
00:18 30.3 °F 20.6 °F 30.11 in SSW 0.2 mph 29.0 mph 67 % 0.00 in
00:23 30.3 °F 20.6 °F 30.11 in SSW 4.0 mph 29.0 mph 67 % 0.00 in
00:28 30.3 °F 21.0 °F 30.10 in SSW 1.0 mph 29.0 mph 68 % 0.00 in
00:33 30.3 °F 20.6 °F 30.10 in SSW 2.8 mph 29.0 mph 67 % 0.00 in
00:38 30.2 °F 20.9 °F 30.10 in WSW 2.9 mph 29.0 mph 68 % 0.00 in
00:43 30.2 °F 20.9 °F 30.10 in SW 1.5 mph 29.0 mph 68 % 0.00 in
00:49 30.2 °F 20.9 °F 30.10 in SW 0.9 mph 29.0 mph 68 % 0.00 in
00:54 30.2 °F 20.9 °F 30.11 in WSW 0.1 mph 29.0 mph 68 % 0.00 in
00:59 30.2 °F 20.9 °F 30.11 in SW 1.5 mph 29.0 mph 68 % 0.00 in
01:04 30.1 °F 21.2 °F 30.10 in SW 2.0 mph 5.0 mph 69 % 0.00 in
01:10 30.1 °F 21.2 °F 30.10 in WSW 2.3 mph 29.0 mph 69 % 0.00 in
01:15 30.1 °F 20.8 °F 30.10 in WSW 1.8 mph 29.0 mph 68 % 0.00 in
01:20 30.0 °F 20.7 °F 30.10 in SW 1.0 mph 29.0 mph 68 % 0.00 in
01:26 30.0 °F 20.7 °F 30.10 in SSW 0.1 mph 29.0 mph 68 % 0.00 in
01:31 29.9 °F 20.6 °F 30.09 in Calm   29.0 mph 68 % 0.00 in
01:36 29.9 °F 20.6 °F 30.10 in Calm   29.0 mph 68 % 0.00 in
01:41 29.8 °F 20.5 °F 30.10 in Calm   29.0 mph 68 % 0.00 in
01:47 29.7 °F 20.1 °F 30.10 in West 1.2 mph 29.0 mph 67 % 0.00 in
01:52 29.7 °F 20.4 °F 30.10 in SW 1.4 mph 29.0 mph 68 % 0.00 in
01:57 29.6 °F 20.3 °F 30.09 in WSW 1.1 mph 29.0 mph 68 % 0.00 in
02:03 29.5 °F 20.2 °F 30.09 in WSW 0.7 mph 29.0 mph 68 % 0.00 in
02:08 29.4 °F 20.1 °F 30.09 in SW 2.5 mph 29.0 mph 68 % 0.00 in
02:13 29.3 °F 20.0 °F 30.10 in SW 0.4 mph 29.0 mph 68 % 0.00 in
02:18 29.3 °F 20.0 °F 30.10 in SW 0.4 mph 29.0 mph 68 % 0.00 in
02:24 29.3 °F 20.0 °F 30.09 in SW 1.1 mph 29.0 mph 68 % 0.00 in
02:29 29.3 °F 20.4 °F 30.09 in SSW 1.2 mph 29.0 mph 69 % 0.00 in
02:36 29.3 °F 20.0 °F 30.09 in WSW 1.1 mph 29.0 mph 68 % 0.00 in
02:41 29.3 °F 20.0 °F 30.09 in SW 1.8 mph 29.0 mph 68 % 0.00 in
02:46 29.4 °F 20.1 °F 30.09 in WSW 1.6 mph 29.0 mph 68 % 0.00 in
02:53 29.4 °F 20.1 °F 30.08 in WSW 3.5 mph 29.0 mph 68 % 0.00 in
02:59 29.5 °F 20.2 °F 30.08 in SW 1.6 mph 29.0 mph 68 % 0.00 in
03:04 29.6 °F 20.3 °F 30.08 in SW 2.0 mph 7.0 mph 68 % 0.00 in
03:09 29.6 °F 20.3 °F 30.08 in SW 3.0 mph 6.0 mph 68 % 0.00 in
03:17 29.6 °F 20.3 °F 30.08 in WSW 2.4 mph 29.0 mph 68 % 0.00 in
03:22 29.6 °F 20.3 °F 30.08 in West 2.1 mph 29.0 mph 68 % 0.00 in
03:30 29.7 °F 20.4 °F 30.08 in WSW 4.0 mph 29.0 mph 68 % 0.00 in
03:36 29.8 °F 20.5 °F 30.08 in West 4.0 mph 29.0 mph 68 % 0.00 in
03:42 29.9 °F 20.6 °F 30.08 in WSW 4.4 mph 29.0 mph 68 % 0.00 in
03:47 29.9 °F 20.6 °F 30.08 in WSW 3.9 mph 29.0 mph 68 % 0.00 in
03:52 30.0 °F 20.7 °F 30.07 in SW 3.8 mph 29.0 mph 68 % 0.00 in
03:58 30.0 °F 20.7 °F 30.07 in WSW 2.7 mph 29.0 mph 68 % 0.00 in
04:03 30.0 °F 20.7 °F 30.07 in WSW 3.1 mph 29.0 mph 68 % 0.00 in
04:08 30.0 °F 20.7 °F 30.08 in SW 1.3 mph 29.0 mph 68 % 0.00 in
04:15 30.0 °F 20.7 °F 30.08 in WSW 1.4 mph 29.0 mph 68 % 0.00 in
04:21 30.0 °F 20.7 °F 30.08 in WSW 1.0 mph 29.0 mph 68 % 0.00 in
04:27 29.9 °F 20.6 °F 30.08 in WSW 1.8 mph 29.0 mph 68 % 0.00 in
04:33 29.9 °F 20.6 °F 30.08 in WSW 1.7 mph 29.0 mph 68 % 0.00 in
04:40 29.9 °F 21.0 °F 30.08 in WSW 0.5 mph 29.0 mph 69 % 0.00 in
04:46 29.8 °F 20.9 °F 30.08 in WSW 1.6 mph 29.0 mph 69 % 0.00 in
04:54 29.7 °F 21.1 °F 30.08 in SW 2.0 mph 29.0 mph 70 % 0.00 in
04:59 29.7 °F 21.4 °F 30.08 in WSW 1.4 mph 29.0 mph 71 % 0.00 in
05:08 29.6 °F 21.3 °F 30.08 in WSW 1.7 mph 29.0 mph 71 % 0.00 in
05:14 29.6 °F 21.7 °F 30.08 in West 1.9 mph 29.0 mph 72 % 0.00 in
05:19 29.6 °F 21.7 °F 30.08 in WSW 2.0 mph 6.0 mph 72 % 0.00 in
05:26 29.6 °F 21.7 °F 30.08 in WSW 2.3 mph 29.0 mph 72 % 0.00 in
05:32 29.6 °F 22.0 °F 30.08 in WSW 3.3 mph 29.0 mph 73 % 0.00 in
05:38 29.6 °F 22.0 °F 30.08 in SW 0.7 mph 29.0 mph 73 % 0.00 in
05:46 29.6 °F 22.0 °F 30.08 in SW 2.5 mph 29.0 mph 73 % 0.00 in
05:55 29.6 °F 22.0 °F 30.08 in WSW 2.8 mph 29.0 mph 73 % 0.00 in
06:01 29.6 °F 22.0 °F 30.09 in WSW 1.9 mph 29.0 mph 73 % 0.00 in
06:06 29.6 °F 22.3 °F 30.10 in WSW 2.0 mph 29.0 mph 74 % 0.00 in
06:11 29.7 °F 22.4 °F 30.09 in WSW 2.6 mph 29.0 mph 74 % 0.00 in
06:17 29.7 °F 22.7 °F 30.09 in SW 2.0 mph 29.0 mph 75 % 0.00 in
06:22 29.7 °F 22.7 °F 30.10 in WSW 2.7 mph 29.0 mph 75 % 0.00 in
06:29 29.7 °F 22.7 °F 30.10 in WSW 2.1 mph 29.0 mph 75 % 0.00 in
06:37 29.7 °F 22.7 °F 30.11 in WSW 2.4 mph 29.0 mph 75 % 0.00 in
06:43 29.6 °F 22.6 °F 30.11 in SSW 1.7 mph 29.0 mph 75 % 0.00 in
06:53 29.6 °F 22.6 °F 30.11 in SSW 0.5 mph 29.0 mph 75 % 0.00 in
07:00 29.7 °F 23.1 °F 30.11 in West 5.2 mph 29.0 mph 76 % 0.00 in
07:06 30.0 °F 23.0 °F 30.11 in WNW 1.0 mph 29.0 mph 75 % 0.00 in
07:11 30.1 °F 23.4 °F 30.11 in SSW 1.8 mph 29.0 mph 76 % 0.00 in
07:17 30.2 °F 23.5 °F 30.11 in SSW 0.4 mph 29.0 mph 76 % 0.00 in
07:22 30.3 °F 23.6 °F 30.11 in SSW 2.2 mph 29.0 mph 76 % 0.00 in
07:27 30.3 °F 23.6 °F 30.12 in SW 1.9 mph 29.0 mph 76 % 0.00 in
07:34 30.3 °F 23.6 °F 30.12 in West 2.5 mph 29.0 mph 76 % 0.00 in
07:40 30.3 °F 23.6 °F 30.11 in WSW 2.5 mph 29.0 mph 76 % 0.00 in
07:46 30.3 °F 23.3 °F 30.12 in WSW 2.2 mph 29.0 mph 75 % 0.00 in
07:52 30.3 °F 23.3 °F 30.12 in SW 2.8 mph 29.0 mph 75 % 0.00 in
07:59 30.3 °F 23.3 °F 30.12 in SW 1.9 mph 29.0 mph 75 % 0.00 in
08:05 30.3 °F 23.3 °F 30.12 in SW 3.0 mph 29.0 mph 75 % 0.00 in
08:11 30.3 °F 23.0 °F 30.12 in SW 1.5 mph 29.0 mph 74 % 0.00 in
08:16 30.4 °F 23.1 °F 30.12 in SW 2.3 mph 29.0 mph 74 % 0.00 in
08:24 30.5 °F 22.9 °F 30.12 in WSW 0.1 mph 29.0 mph 73 % 0.00 in
08:30 30.6 °F 23.0 °F 30.13 in WSW 1.3 mph 29.0 mph 73 % 0.00 in
08:37 30.7 °F 22.7 °F 30.13 in WSW 1.3 mph 29.0 mph 72 % 0.00 in
08:43 30.9 °F 22.9 °F 30.13 in SW 1.8 mph 29.0 mph 72 % 0.00 in
08:48 31.0 °F 23.0 °F 30.14 in SW 1.8 mph 29.0 mph 72 % 0.00 in
08:56 31.2 °F 23.2 °F 30.14 in SW 0.1 mph 29.0 mph 72 % 0.00 in
09:05 31.7 °F 24.0 °F 30.14 in WSW 0.7 mph 29.0 mph 73 % 0.00 in
09:11 32.0 °F 24.3 °F 30.15 in WSW 3.1 mph 29.0 mph 73 % 0.00 in
09:16 32.4 °F 24.4 °F 30.15 in WSW 4.3 mph 29.0 mph 72 % 0.00 in
09:25 33.0 °F 24.3 °F 30.15 in WSW 1.4 mph 29.0 mph 70 % 0.00 in
09:31 33.4 °F 25.0 °F 30.15 in WNW 1.9 mph 29.0 mph 71 % 0.00 in
09:36 33.8 °F 25.0 °F 30.16 in WSW 2.1 mph 29.0 mph 70 % 0.00 in
09:41 34.1 °F 25.0 °F 30.16 in West 4.2 mph 29.0 mph 69 % 0.00 in
09:48 34.6 °F 24.4 °F 30.16 in West 1.3 mph 29.0 mph 66 % 0.00 in
09:57 35.2 °F 24.2 °F 30.16 in WNW 2.1 mph 29.0 mph 64 % 0.00 in
10:02 35.5 °F 24.1 °F 30.16 in WNW 1.7 mph 29.0 mph 63 % 0.00 in
10:07 35.7 °F 23.9 °F 30.16 in WNW 1.9 mph 29.0 mph 62 % 0.00 in
10:13 36.1 °F 23.9 °F 30.16 in WNW 4.2 mph 29.0 mph 61 % 0.00 in
10:25 36.7 °F 24.1 °F 30.16 in WNW 2.2 mph 29.0 mph 60 % 0.00 in
10:31 36.9 °F 24.3 °F 30.16 in WNW 3.0 mph 29.0 mph 60 % 0.00 in
10:37 37.1 °F 24.1 °F 30.16 in WNW 3.3 mph 29.0 mph 59 % 0.00 in
10:42 37.1 °F 24.1 °F 30.15 in WSW 1.8 mph 29.0 mph 59 % 0.00 in
10:48 37.3 °F 24.7 °F 30.15 in West 3.1 mph 29.0 mph 60 % 0.00 in
10:54 37.4 °F 24.0 °F 30.16 in WSW 1.3 mph 29.0 mph 58 % 0.00 in
11:00 37.6 °F 24.1 °F 30.15 in WNW 2.2 mph 29.0 mph 58 % 0.00 in
11:08 37.8 °F 24.3 °F 30.15 in WNW 3.1 mph 29.0 mph 58 % 0.00 in
11:16 38.0 °F 24.5 °F 30.15 in WNW 3.5 mph 29.0 mph 58 % 0.00 in
11:22 38.0 °F 24.5 °F 30.14 in WNW 3.0 mph 29.0 mph 58 % 0.00 in
11:27 38.1 °F 24.2 °F 30.15 in WSW 3.1 mph 29.0 mph 57 % 0.00 in
11:32 38.1 °F 24.2 °F 30.14 in West 1.2 mph 29.0 mph 57 % 0.00 in
11:37 38.2 °F 24.3 °F 30.14 in SW 2.4 mph 29.0 mph 57 % 0.00 in
11:42 38.2 °F 24.7 °F 30.14 in WSW 3.7 mph 29.0 mph 58 % 0.00 in
11:47 38.3 °F 24.4 °F 30.14 in NW 3.1 mph 29.0 mph 57 % 0.00 in
11:53 38.3 °F 24.0 °F 30.14 in West 4.2 mph 29.0 mph 56 % 0.00 in
11:58 38.3 °F 24.0 °F 30.13 in West 3.9 mph 29.0 mph 56 % 0.00 in
12:03 38.3 °F 24.4 °F 30.14 in West 2.6 mph 29.0 mph 57 % 0.00 in
12:08 38.4 °F 24.9 °F 30.14 in SW 5.5 mph 29.0 mph 58 % 0.00 in
12:13 38.4 °F 24.9 °F 30.14 in WSW 2.6 mph 29.0 mph 58 % 0.00 in
12:18 38.5 °F 25.0 °F 30.12 in SSW 3.6 mph 29.0 mph 58 % 0.00 in
12:23 38.5 °F 25.0 °F 30.12 in West 2.1 mph 29.0 mph 58 % 0.00 in
12:28 38.4 °F 24.9 °F 30.13 in WSW 3.2 mph 29.0 mph 58 % 0.00 in
12:33 38.4 °F 24.9 °F 30.12 in WSW 4.8 mph 29.0 mph 58 % 0.00 in
12:38 38.3 °F 24.8 °F 30.12 in SW 2.8 mph 29.0 mph 58 % 0.00 in
12:43 38.3 °F 24.8 °F 30.12 in WSW 6.4 mph 29.0 mph 58 % 0.00 in
12:48 38.2 °F 25.1 °F 30.12 in WSW 5.4 mph 29.0 mph 59 % 0.00 in
12:54 38.2 °F 24.7 °F 30.13 in WSW 6.3 mph 29.0 mph 58 % 0.00 in
12:59 38.2 °F 24.7 °F 30.13 in SW 3.8 mph 29.0 mph 58 % 0.00 in
13:04 38.2 °F 24.7 °F 30.13 in WSW 3.5 mph 29.0 mph 58 % 0.00 in
13:09 38.2 °F 25.1 °F 30.13 in WSW 0.5 mph 29.0 mph 59 % 0.00 in
13:14 38.3 °F 24.8 °F 30.12 in West 2.2 mph 29.0 mph 58 % 0.00 in
13:19 38.4 °F 24.9 °F 30.13 in WNW 4.5 mph 29.0 mph 58 % 0.00 in
13:24 38.4 °F 25.3 °F 30.12 in WSW 3.2 mph 29.0 mph 59 % 0.00 in
13:29 38.5 °F 25.4 °F 30.13 in SW 3.0 mph 29.0 mph 59 % 0.00 in
13:34 38.5 °F 25.4 °F 30.12 in WSW 2.2 mph 29.0 mph 59 % 0.00 in
13:39 38.6 °F 25.5 °F 30.13 in West 1.9 mph 29.0 mph 59 % 0.00 in
13:44 38.7 °F 25.6 °F 30.13 in WSW 3.3 mph 29.0 mph 59 % 0.00 in
13:49 38.8 °F 25.7 °F 30.13 in WSW 5.4 mph 29.0 mph 59 % 0.00 in
13:54 38.8 °F 25.3 °F 30.13 in WSW 5.0 mph 8.0 mph 58 % 0.00 in
13:59 38.9 °F 25.4 °F 30.13 in WNW 2.9 mph 29.0 mph 58 % 0.00 in
14:04 39.0 °F 25.9 °F 30.13 in SW 2.6 mph 29.0 mph 59 % 0.00 in
14:10 39.1 °F 26.0 °F 30.13 in SW 3.9 mph 29.0 mph 59 % 0.00 in
14:15 39.1 °F 25.6 °F 30.13 in WSW 4.8 mph 29.0 mph 58 % 0.00 in
14:20 39.1 °F 25.6 °F 30.14 in WSW 4.4 mph 29.0 mph 58 % 0.00 in
14:25 39.1 °F 26.0 °F 30.14 in SW 2.1 mph 29.0 mph 59 % 0.00 in
14:30 39.1 °F 26.0 °F 30.14 in WSW 3.7 mph 29.0 mph 59 % 0.00 in
14:35 39.1 °F 26.0 °F 30.14 in WSW 2.0 mph 29.0 mph 59 % 0.00 in
14:40 39.1 °F 25.6 °F 30.14 in SSW 3.4 mph 29.0 mph 58 % 0.00 in
14:45 39.0 °F 25.5 °F 30.14 in WSW 1.0 mph 29.0 mph 58 % 0.00 in
14:50 39.0 °F 25.5 °F 30.14 in SW 2.0 mph 29.0 mph 58 % 0.00 in
14:55 39.0 °F 25.5 °F 30.14 in WSW 0.4 mph 29.0 mph 58 % 0.00 in
15:00 39.0 °F 25.5 °F 30.14 in SW 0.2 mph 29.0 mph 58 % 0.00 in
15:05 39.0 °F 25.0 °F 30.13 in SW 3.0 mph 29.0 mph 57 % 0.00 in
15:10 39.0 °F 25.5 °F 30.13 in SW 1.2 mph 29.0 mph 58 % 0.00 in
15:15 39.0 °F 25.5 °F 30.13 in SW 1.3 mph 29.0 mph 58 % 0.00 in
15:20 38.9 °F 25.8 °F 30.14 in SW 0.7 mph 29.0 mph 59 % 0.00 in
15:26 38.9 °F 25.4 °F 30.13 in SW 0.8 mph 29.0 mph 58 % 0.00 in
15:31 38.9 °F 25.8 °F 30.13 in SW 0.4 mph 29.0 mph 59 % 0.00 in
15:36 38.8 °F 25.3 °F 30.14 in SW 0.5 mph 29.0 mph 58 % 0.00 in
15:41 38.8 °F 25.7 °F 30.14 in WSW 2.3 mph 29.0 mph 59 % 0.00 in
15:46 38.8 °F 25.3 °F 30.14 in WSW 1.6 mph 29.0 mph 58 % 0.00 in
15:51 38.7 °F 25.6 °F 30.14 in WSW 1.1 mph 29.0 mph 59 % 0.00 in
15:56 38.6 °F 25.5 °F 30.14 in SW 1.5 mph 29.0 mph 59 % 0.00 in
16:01 38.6 °F 25.5 °F 30.14 in SW 1.9 mph 29.0 mph 59 % 0.00 in
16:06 38.5 °F 25.4 °F 30.14 in SW 2.0 mph 29.0 mph 59 % 0.00 in
16:11 38.4 °F 25.7 °F 30.14 in SW 1.6 mph 29.0 mph 60 % 0.00 in
16:16 38.4 °F 25.7 °F 30.15 in SW 1.9 mph 29.0 mph 60 % 0.00 in
16:21 38.3 °F 25.6 °F 30.15 in SW 1.5 mph 29.0 mph 60 % 0.00 in
16:26 38.2 °F 25.5 °F 30.15 in SW 0.5 mph 29.0 mph 60 % 0.00 in
16:31 38.1 °F 25.4 °F 30.15 in SW 0.3 mph 29.0 mph 60 % 0.00 in
16:36 38.0 °F 25.3 °F 30.15 in SW 0.6 mph 29.0 mph 60 % 0.00 in
16:41 37.9 °F 25.2 °F 30.15 in SW 0.2 mph 29.0 mph 60 % 0.00 in
16:46 37.7 °F 24.6 °F 30.15 in Calm   29.0 mph 59 % 0.00 in
16:52 37.6 °F 24.6 °F 30.15 in Calm   29.0 mph 59 % 0.00 in
16:57 37.5 °F 24.9 °F 30.16 in Calm   29.0 mph 60 % 0.00 in
17:02 37.5 °F 24.9 °F 30.16 in SW 0.1 mph 29.0 mph 60 % 0.00 in
17:07 37.3 °F 24.3 °F 30.16 in Calm   29.0 mph 59 % 0.00 in
17:09 37.3 °F 24.3 °F 30.16 in SW 0.1 mph 29.0 mph 59 % 0.00 in
17:14 37.1 °F 24.1 °F 30.16 in West 1.7 mph 29.0 mph 59 % 0.00 in
17:19 37.0 °F 24.0 °F 30.16 in WSW 1.0 mph 3.0 mph 59 % 0.00 in
17:24 36.9 °F 23.9 °F 30.16 in Calm   3.0 mph 59 % 0.00 in
17:29 36.9 °F 23.9 °F 30.16 in West 0.2 mph 29.0 mph 59 % 0.00 in
17:34 36.8 °F 23.4 °F 30.16 in WSW 1.0 mph 3.0 mph 58 % 0.00 in
17:39 36.8 °F 23.8 °F 30.16 in WSW 1.0 mph 2.0 mph 59 % 0.00 in
17:44 36.8 °F 23.8 °F 30.16 in Calm   2.0 mph 59 % 0.00 in
17:49 36.7 °F 23.7 °F 30.16 in Calm   29.0 mph 59 % 0.00 in
17:54 36.7 °F 23.7 °F 30.16 in Calm   2.0 mph 59 % 0.00 in
17:59 36.7 °F 23.3 °F 30.16 in WSW 0.3 mph 29.0 mph 58 % 0.00 in
18:04 36.6 °F 23.6 °F 30.16 in Calm   29.0 mph 59 % 0.00 in
18:09 36.6 °F 23.6 °F 30.16 in Calm   29.0 mph 59 % 0.00 in
18:15 36.4 °F 23.4 °F 30.17 in Calm   29.0 mph 59 % 0.00 in
18:20 36.4 °F 23.8 °F 30.17 in Calm   29.0 mph 60 % 0.00 in
18:25 36.2 °F 23.6 °F 30.17 in WSW 1.0 mph 29.0 mph 60 % 0.00 in
18:30 36.1 °F 23.5 °F 30.17 in WSW 0.9 mph 29.0 mph 60 % 0.00 in
18:35 36.0 °F 23.4 °F 30.17 in Calm   29.0 mph 60 % 0.00 in
18:40 35.9 °F 23.4 °F 30.17 in Calm   29.0 mph 60 % 0.00 in
18:45 35.8 °F 23.3 °F 30.17 in Calm   29.0 mph 60 % 0.00 in
18:50 35.7 °F 23.6 °F 30.17 in WSW 0.1 mph 29.0 mph 61 % 0.00 in
18:55 35.6 °F 23.5 °F 30.17 in Calm   29.0 mph 61 % 0.00 in
19:00 35.5 °F 23.8 °F 30.17 in SW 1.0 mph 29.0 mph 62 % 0.00 in
19:05 35.4 °F 23.7 °F 30.17 in SW 0.1 mph 29.0 mph 62 % 0.00 in
19:10 35.3 °F 24.0 °F 30.18 in SW 1.4 mph 29.0 mph 63 % 0.00 in
19:15 35.2 °F 23.9 °F 30.18 in SW 1.7 mph 29.0 mph 63 % 0.00 in
19:20 35.1 °F 24.1 °F 30.18 in SW 0.2 mph 29.0 mph 64 % 0.00 in
19:25 35.0 °F 24.0 °F 30.18 in SW 0.7 mph 29.0 mph 64 % 0.00 in
19:30 35.0 °F 24.4 °F 30.17 in SW 0.1 mph 29.0 mph 65 % 0.00 in
19:35 34.8 °F 24.6 °F 30.18 in Calm   29.0 mph 66 % 0.00 in
19:41 34.7 °F 24.5 °F 30.18 in SW 2.0 mph 29.0 mph 66 % 0.00 in
19:46 34.7 °F 24.5 °F 30.17 in SW 0.9 mph 29.0 mph 66 % 0.00 in
19:51 34.7 °F 24.5 °F 30.18 in WSW 1.1 mph 29.0 mph 66 % 0.00 in
19:56 34.6 °F 24.8 °F 30.17 in WSW 0.1 mph 29.0 mph 67 % 0.00 in
20:01 34.6 °F 24.8 °F 30.17 in WSW 1.2 mph 29.0 mph 67 % 0.00 in
20:22 34.7 °F 24.9 °F 30.17 in SW 0.1 mph 29.0 mph 67 % 0.00 in
20:27 34.7 °F 24.9 °F 30.17 in WSW 1.7 mph 29.0 mph 67 % 0.00 in
20:33 34.8 °F 25.0 °F 30.18 in West 0.2 mph 29.0 mph 67 % 0.00 in
20:38 34.8 °F 25.0 °F 30.17 in WSW 0.2 mph 29.0 mph 67 % 0.00 in
20:45 34.9 °F 25.0 °F 30.17 in WSW 0.3 mph 29.0 mph 67 % 0.00 in
20:51 34.9 °F 25.0 °F 30.17 in SSW 0.5 mph 29.0 mph 67 % 0.00 in
20:56 34.9 °F 25.0 °F 30.17 in SSW 0.5 mph 29.0 mph 67 % 0.00 in
21:01 34.8 °F 25.0 °F 30.17 in SSW 0.1 mph 29.0 mph 67 % 0.00 in
21:06 34.8 °F 25.0 °F 30.17 in SSW 0.2 mph 29.0 mph 67 % 0.00 in
21:12 34.8 °F 25.0 °F 30.17 in SSW 0.1 mph 29.0 mph 67 % 0.00 in
21:17 34.8 °F 25.3 °F 30.17 in Calm   29.0 mph 68 % 0.00 in
21:23 34.8 °F 25.3 °F 30.17 in Calm   29.0 mph 68 % 0.00 in
21:28 34.8 °F 25.3 °F 30.16 in SSW 0.2 mph 29.0 mph 68 % 0.00 in
21:33 34.7 °F 25.2 °F 30.17 in SSW 0.6 mph 29.0 mph 68 % 0.00 in
21:39 34.7 °F 25.2 °F 30.16 in SSW 0.8 mph 29.0 mph 68 % 0.00 in
21:45 34.7 °F 25.2 °F 30.16 in SSW 0.1 mph 29.0 mph 68 % 0.00 in
21:50 34.7 °F 25.2 °F 30.16 in SSW 0.8 mph 29.0 mph 68 % 0.00 in
21:56 34.8 °F 25.3 °F 30.16 in SSW 0.5 mph 29.0 mph 68 % 0.00 in
22:01 34.8 °F 25.3 °F 30.16 in SSW 0.9 mph 29.0 mph 68 % 0.00 in
22:06 34.9 °F 25.4 °F 30.16 in SSW 1.7 mph 29.0 mph 68 % 0.00 in
22:13 35.0 °F 25.5 °F 30.16 in SSW 0.1 mph 29.0 mph 68 % 0.00 in
22:18 35.1 °F 25.6 °F 30.17 in SW 1.8 mph 29.0 mph 68 % 0.00 in
22:23 35.2 °F 25.7 °F 30.16 in WSW 1.3 mph 29.0 mph 68 % 0.00 in
22:28 35.2 °F 25.7 °F 30.16 in WSW 1.3 mph 29.0 mph 68 % 0.00 in
22:33 35.3 °F 25.8 °F 30.16 in WSW 1.4 mph 29.0 mph 68 % 0.00 in
22:37 35.3 °F 25.8 °F 30.16 in SW 2.0 mph 29.0 mph 68 % 0.00 in
22:39 35.3 °F 25.8 °F 30.16 in SW 1.6 mph 29.0 mph 68 % 0.00 in
22:40 35.4 °F 25.9 °F 30.16 in SW 2.3 mph 29.0 mph 68 % 0.00 in
22:42 35.4 °F 25.9 °F 30.16 in SW 2.6 mph 29.0 mph 68 % 0.00 in
22:43 35.4 °F 25.9 °F 30.16 in SW 2.8 mph 29.0 mph 68 % 0.00 in
22:46 35.4 °F 25.9 °F 30.16 in SW 0.8 mph 29.0 mph 68 % 0.00 in
22:48 35.5 °F 26.0 °F 30.16 in SW 0.2 mph 29.0 mph 68 % 0.00 in
22:53 35.5 °F 26.0 °F 30.16 in Calm   29.0 mph 68 % 0.00 in
22:58 35.6 °F 26.1 °F 30.15 in Calm   29.0 mph 68 % 0.00 in
23:03 35.6 °F 26.1 °F 30.15 in SW 0.2 mph 29.0 mph 68 % 0.00 in
23:09 35.6 °F 26.1 °F 30.15 in Calm   29.0 mph 68 % 0.00 in
23:19 35.6 °F 26.4 °F 30.15 in SW 0.2 mph 29.0 mph 69 % 0.00 in
23:24 35.6 °F 26.4 °F 30.15 in SW 0.3 mph 29.0 mph 69 % 0.00 in
23:29 35.5 °F 26.3 °F 30.14 in Calm   29.0 mph 69 % 0.00 in
23:34 35.5 °F 26.3 °F 30.14 in Calm   29.0 mph 69 % 0.00 in
23:39 35.5 °F 26.3 °F 30.14 in Calm   29.0 mph 69 % 0.00 in
23:44 35.4 °F 26.2 °F 30.14 in SW 0.1 mph 29.0 mph 69 % 0.00 in
23:49 35.4 °F 26.2 °F 30.14 in SW 0.9 mph 29.0 mph 69 % 0.00 in
23:54 35.4 °F 26.2 °F 30.13 in SW 1.5 mph 29.0 mph 69 % 0.00 in
Crab Meadow Weather
Compliments of Weather Underground - 2.75 mb

Script developed by  Jim McMurry - jmcmurry@mwt.net Adapted for the template by  Wim van der Kuil - Leuven-Template.eu

Weather Terms: Winter Storm Watch - Conditions are favorable for hazardous winter weather conditions including heavy snow, blizzard conditions, or significant accumulations of freezing rain or sleet. These watches are issued by the Weather Service Forecast Office in Upton and are usually issued 12 to 36 hours in advance of the event.